Flag for U.S.A. Weather past 2 weeks in Mason, Ohio, U.S.A.

Now
60 °F

Sunny.


Feels Like: 60 °F
Forecast: 38 / 58 °F
Wind: 5 mph from Northwest

Location: Butler County Regional Airport


UV Index: 5 (Moderate)

Visibility: 10 mi


Pressure: 30.07 "Hg

Humidity: 38%

Dew point: 34 °F

Location of MasonLocation

Historic Weather in Mason

°F

Mason temperature yesterday

Maximum temperature yesterday: 68 °F (at 11:53 AM)
Minimum temperature yesterday: 46 °F (at 11:53 PM)
Average temperature yesterday: 61 °F

Past Weeks' High & Low Weather Summary

 TemperatureHumidityPressure
High83 °F (Apr 13, 3:53 PM)100% (Apr 15, 2:59 AM)30.45 "Hg (Apr 15, 2:59 AM)
Low25 °F (Apr 16, 5:53 AM)19% (Apr 20, 5:53 PM)29.65 "Hg (Apr 14, 4:53 AM)
Average57 °F57%30.06 "Hg
* Reported Apr 8 5:53 PM — Apr 23 5:53 PM, Mason, Weather by CustomWeather, © 2014

Note: Actual official high and low records may vary slightly from our data, if they occured in-between our weather recording intervals... More about our weather records

Advertising

Historic Weather Conditions — Data for Previous 24 hours

 ConditionsComfort  
Time TempWeatherWind HumidityBarometerVisibility
5:53 PM
Apr 23
61 °FSunny.N/A38%30.07 "Hg10 mi
4:53 PM62 °FSunny.9 mph37%30.07 "Hg10 mi
3:53 PM58 °FSunny.5 mph39%30.09 "Hg10 mi
2:53 PM58 °FSunny.5 mph41%30.09 "Hg10 mi
1:53 PM55 °FSunny.6 mph45%30.11 "Hg10 mi
12:53 PM54 °FSunny.8 mph47%30.13 "Hg10 mi
11:53 AM50 °FSunny.6 mph52%30.13 "Hg10 mi
10:53 AM50 °FSunny.8 mph52%30.13 "Hg10 mi
9:53 AM46 °FSunny.9 mph56%30.12 "Hg10 mi
8:53 AM44 °FSunny.8 mph63%30.11 "Hg10 mi
7:53 AM40 °FSunny.6 mph73%30.09 "Hg10 mi
6:53 AM38 °FClear.6 mph73%30.06 "Hg10 mi
5:53 AM40 °FClear.6 mph70%30.04 "Hg10 mi
4:53 AM40 °FClear.7 mph73%30.02 "Hg10 mi
3:53 AM39 °FClear.6 mph76%30.00 "Hg10 mi
2:53 AM42 °FClear.7 mph68%30.00 "Hg10 mi
1:53 AM44 °FClear.6 mph65%29.99 "Hg10 mi
12:53 AM41 °FClear.No wind74%29.99 "Hg10 mi
11:53 PM
Apr 22
46 °FClear.7 mph56%29.98 "Hg10 mi
10:53 PM48 °FClear.7 mph54%29.98 "Hg10 mi
9:53 PM51 °FClear.12 mph48%29.98 "Hg10 mi
8:53 PM54 °FSunny.14 mph45%29.93 "Hg10 mi
7:53 PM57 °FSunny.14 mph42%29.90 "Hg10 mi
Weather by CustomWeather, © 2014

See weather overview